Time,TemperatureF,DewpointF,PressureIn,WindDirection,WindDirectionDegrees,WindSpeedMPH,WindSpeedGustMPH,Humidity,HourlyPrecipIn,Conditions,Clouds,dailyrainin,SoftwareType,DateUTC
2013-10-24 00:01:00,30.2,28.9,29.53,SSW,194,0.0,1.0,95,0.00,,,0.00,meteohub,2013-10-24 04:01:00,
2013-10-24 00:02:00,30.2,28.9,29.53,SSW,194,0.0,1.0,95,0.00,,,0.00,meteohub,2013-10-24 04:02:00,
2013-10-24 00:03:00,30.2,28.9,29.53,SSW,194,0.0,1.0,95,0.00,,,0.00,meteohub,2013-10-24 04:03:00,
2013-10-24 00:04:00,30.4,29.1,29.53,SSW,194,0.0,1.0,95,0.00,,,0.00,meteohub,2013-10-24 04:04:00,
2013-10-24 00:10:00,30.4,29.1,29.53,SSW,194,0.0,1.0,95,0.00,,,0.00,meteohub,2013-10-24 04:10:00,
2013-10-24 00:15:00,30.4,29.1,29.53,SSW,194,0.0,1.0,95,0.00,,,0.00,meteohub,2013-10-24 04:15:00,
2013-10-24 00:20:00,30.6,29.3,29.52,SSW,194,0.0,0.0,95,0.00,,,0.00,meteohub,2013-10-24 04:20:00,
2013-10-24 00:25:00,30.6,29.3,29.52,SSW,194,0.0,2.0,95,0.00,,,0.00,meteohub,2013-10-24 04:25:00,
2013-10-24 00:30:00,30.7,29.5,29.53,SSW,194,0.0,2.0,95,0.00,,,0.00,meteohub,2013-10-24 04:30:00,
2013-10-24 00:35:00,30.7,29.5,29.53,SSW,194,0.0,2.0,95,0.00,,,0.00,meteohub,2013-10-24 04:35:00,
2013-10-24 00:40:00,30.9,29.7,29.53,SSW,194,0.0,3.0,95,0.00,,,0.00,meteohub,2013-10-24 04:40:00,
2013-10-24 00:45:00,31.3,30.0,29.53,SSW,194,1.0,3.0,95,0.00,,,0.00,meteohub,2013-10-24 04:45:00,
2013-10-24 00:51:00,31.3,30.0,29.53,SSW,194,0.0,3.0,95,0.00,,,0.00,meteohub,2013-10-24 04:51:00,
2013-10-24 00:56:00,31.5,30.2,29.53,SW,215,2.0,2.0,95,0.00,,,0.00,meteohub,2013-10-24 04:56:00,
2013-10-24 01:01:00,31.5,30.0,29.52,SSE,161,0.0,4.0,94,0.00,,,0.00,meteohub,2013-10-24 05:01:00,
2013-10-24 01:06:00,31.5,30.0,29.52,SSE,161,0.0,4.0,94,0.00,,,0.00,meteohub,2013-10-24 05:06:00,
2013-10-24 01:11:00,31.5,30.0,29.53,SSE,161,0.0,4.0,94,0.00,,,0.00,meteohub,2013-10-24 05:11:00,
2013-10-24 01:16:00,31.6,30.2,29.52,SSE,161,0.0,2.0,94,0.00,,,0.00,meteohub,2013-10-24 05:16:00,
2013-10-24 01:21:00,31.6,30.2,29.52,SSE,161,0.0,2.0,94,0.00,,,0.00,meteohub,2013-10-24 05:21:00,
2013-10-24 01:26:00,31.6,30.2,29.52,SSE,161,0.0,1.0,94,0.00,,,0.00,meteohub,2013-10-24 05:26:00,
2013-10-24 01:32:00,31.6,30.2,29.52,SSE,161,0.0,1.0,94,0.00,,,0.00,meteohub,2013-10-24 05:32:00,
2013-10-24 01:37:00,31.6,30.2,29.52,SSE,161,0.0,1.0,94,0.00,,,0.00,meteohub,2013-10-24 05:37:00,
2013-10-24 01:42:00,31.6,30.2,29.52,SSE,161,0.0,0.0,94,0.00,,,0.00,meteohub,2013-10-24 05:42:00,
2013-10-24 01:47:00,31.6,30.2,29.52,SSE,161,0.0,0.0,94,0.00,,,0.00,meteohub,2013-10-24 05:47:00,
2013-10-24 01:52:00,31.6,30.2,29.51,SSE,161,0.0,0.0,94,0.00,,,0.00,meteohub,2013-10-24 05:52:00,
2013-10-24 01:57:00,31.6,30.2,29.51,SSE,161,0.0,0.0,94,0.00,,,0.00,meteohub,2013-10-24 05:57:00,
2013-10-24 02:02:00,31.6,30.2,29.51,SSE,161,0.0,1.0,94,0.00,,,0.00,meteohub,2013-10-24 06:02:00,
2013-10-24 02:07:00,31.8,30.6,29.51,SSE,161,0.0,1.0,95,0.00,,,0.00,meteohub,2013-10-24 06:07:00,
2013-10-24 02:12:00,31.8,30.6,29.50,SSE,161,1.0,0.0,95,0.00,,,0.00,meteohub,2013-10-24 06:12:00,
2013-10-24 02:18:00,31.8,30.6,29.50,SSE,161,0.0,0.0,95,0.00,,,0.00,meteohub,2013-10-24 06:18:00,
2013-10-24 02:23:00,31.8,30.6,29.50,SSE,161,0.0,3.0,95,0.00,,,0.00,meteohub,2013-10-24 06:23:00,
2013-10-24 02:28:00,31.8,30.6,29.49,SSE,161,0.0,3.0,95,0.00,,,0.00,meteohub,2013-10-24 06:28:00,
2013-10-24 02:33:00,31.8,30.4,29.49,SSE,161,0.0,1.0,94,0.00,,,0.00,meteohub,2013-10-24 06:33:00,
2013-10-24 02:38:00,31.6,30.4,29.49,SSE,161,0.0,0.0,95,0.00,,,0.00,meteohub,2013-10-24 06:38:00,
2013-10-24 02:43:00,31.6,30.2,29.49,SSE,161,0.0,0.0,94,0.00,,,0.00,meteohub,2013-10-24 06:43:00,
2013-10-24 02:48:00,31.5,30.0,29.49,SSE,161,0.0,0.0,94,0.00,,,0.00,meteohub,2013-10-24 06:48:00,
2013-10-24 02:53:00,31.3,29.8,29.49,SSE,161,0.0,0.0,94,0.00,,,0.00,meteohub,2013-10-24 06:53:00,
2013-10-24 02:59:00,30.7,29.3,29.48,SSE,161,1.0,0.0,94,0.00,,,0.00,meteohub,2013-10-24 06:59:00,
2013-10-24 03:04:00,30.6,29.1,29.49,SSE,161,0.0,2.0,94,0.00,,,0.00,meteohub,2013-10-24 07:04:00,
2013-10-24 03:09:00,30.4,28.9,29.48,SSE,161,0.0,2.0,94,0.00,,,0.00,meteohub,2013-10-24 07:09:00,
2013-10-24 03:14:00,30.2,28.9,29.49,SSE,161,0.0,2.0,95,0.00,,,0.00,meteohub,2013-10-24 07:14:00,
2013-10-24 03:19:00,30.2,28.9,29.48,SSE,161,0.0,1.0,95,0.00,,,0.00,meteohub,2013-10-24 07:19:00,
2013-10-24 03:24:00,30.0,28.8,29.48,SSE,161,0.0,1.0,95,0.00,,,0.00,meteohub,2013-10-24 07:24:00,
2013-10-24 03:29:00,30.0,28.8,29.48,SSE,161,0.0,1.0,95,0.00,,,0.00,meteohub,2013-10-24 07:29:00,
2013-10-24 03:34:00,29.8,28.6,29.48,SSE,161,0.0,0.0,95,0.00,,,0.00,meteohub,2013-10-24 07:34:00,
2013-10-24 03:40:00,29.8,28.6,29.48,SSE,161,0.0,1.0,95,0.00,,,0.00,meteohub,2013-10-24 07:40:00,
2013-10-24 03:45:00,29.7,28.4,29.48,SSE,161,0.0,1.0,95,0.00,,,0.00,meteohub,2013-10-24 07:45:00,
2013-10-24 03:50:00,29.5,28.2,29.48,SSE,161,0.0,1.0,95,0.00,,,0.00,meteohub,2013-10-24 07:50:00,
2013-10-24 03:55:00,29.3,28.0,29.48,SSE,161,0.0,0.0,95,0.00,,,0.00,meteohub,2013-10-24 07:55:00,
2013-10-24 04:00:00,29.1,28.0,29.48,SSE,161,0.0,1.0,96,0.00,,,0.00,meteohub,2013-10-24 08:00:00,
2013-10-24 04:05:00,29.1,28.0,29.48,SSE,161,2.0,2.0,96,0.00,,,0.00,meteohub,2013-10-24 08:05:00,
2013-10-24 04:10:00,28.9,27.9,29.48,SSE,161,0.0,2.0,96,0.00,,,0.00,meteohub,2013-10-24 08:10:00,
2013-10-24 04:15:00,28.8,27.7,29.48,SSE,161,0.0,2.0,96,0.00,,,0.00,meteohub,2013-10-24 08:15:00,
2013-10-24 04:21:00,28.8,27.7,29.48,SSE,161,0.0,2.0,96,0.00,,,0.00,meteohub,2013-10-24 08:21:00,
2013-10-24 04:26:00,28.8,27.7,29.48,SSE,161,0.0,1.0,96,0.00,,,0.00,meteohub,2013-10-24 08:26:00,
2013-10-24 04:31:00,28.8,27.7,29.48,SSE,161,0.0,1.0,96,0.00,,,0.00,meteohub,2013-10-24 08:31:00,
2013-10-24 04:36:00,28.8,27.7,29.48,SSE,161,0.0,2.0,96,0.00,,,0.00,meteohub,2013-10-24 08:36:00,
2013-10-24 04:41:00,28.8,27.7,29.48,SSE,161,0.0,3.0,96,0.00,,,0.00,meteohub,2013-10-24 08:41:00,
2013-10-24 04:46:00,28.6,27.5,29.48,SSE,161,0.0,3.0,96,0.00,,,0.00,meteohub,2013-10-24 08:46:00,
2013-10-24 04:51:00,28.6,27.5,29.48,SSE,161,0.0,3.0,96,0.00,,,0.00,meteohub,2013-10-24 08:51:00,
2013-10-24 04:56:00,28.6,27.5,29.48,SSE,161,0.0,2.0,96,0.00,,,0.00,meteohub,2013-10-24 08:56:00,
2013-10-24 05:02:00,28.6,27.5,29.48,SSE,161,0.0,0.0,96,0.00,,,0.00,meteohub,2013-10-24 09:02:00,
2013-10-24 05:07:00,28.2,27.1,29.48,SSE,161,0.0,0.0,96,0.00,,,0.00,meteohub,2013-10-24 09:07:00,
2013-10-24 05:12:00,28.0,27.0,29.48,SSE,161,0.0,0.0,96,0.00,,,0.00,meteohub,2013-10-24 09:12:00,
2013-10-24 05:17:00,27.9,26.8,29.48,SSE,161,0.0,0.0,96,0.00,,,0.00,meteohub,2013-10-24 09:17:00,
2013-10-24 05:22:00,27.9,26.8,29.48,SSE,161,1.0,1.0,96,0.00,,,0.00,meteohub,2013-10-24 09:22:00,
2013-10-24 05:27:00,27.9,26.8,29.48,SSE,161,0.0,1.0,96,0.00,,,0.00,meteohub,2013-10-24 09:27:00,
2013-10-24 05:32:00,27.9,26.8,29.48,SSE,161,1.0,1.0,96,0.00,,,0.00,meteohub,2013-10-24 09:32:00,
2013-10-24 05:37:00,27.9,26.8,29.49,SSE,161,1.0,3.0,96,0.00,,,0.00,meteohub,2013-10-24 09:37:00,
2013-10-24 05:42:00,28.0,27.3,29.49,SSE,161,0.0,3.0,97,0.00,,,0.00,meteohub,2013-10-24 09:42:00,
2013-10-24 05:47:00,28.0,27.3,29.48,SSE,161,0.0,3.0,97,0.00,,,0.00,meteohub,2013-10-24 09:47:00,
2013-10-24 05:52:00,28.2,27.5,29.48,South,169,2.0,3.0,97,0.00,,,0.00,meteohub,2013-10-24 09:52:00,
2013-10-24 05:57:00,28.6,27.9,29.48,South,169,0.0,3.0,97,0.00,,,0.00,meteohub,2013-10-24 09:57:00,
2013-10-24 06:02:00,28.8,28.0,29.48,South,169,0.0,3.0,97,0.00,,,0.00,meteohub,2013-10-24 10:02:00,
2013-10-24 06:07:00,28.8,28.0,29.49,South,169,0.0,3.0,97,0.00,,,0.00,meteohub,2013-10-24 10:07:00,
2013-10-24 06:12:00,28.8,28.0,29.48,South,169,0.0,1.0,97,0.00,,,0.00,meteohub,2013-10-24 10:12:00,
2013-10-24 06:17:00,28.9,28.2,29.49,WSW,238,2.0,0.0,97,0.00,,,0.00,meteohub,2013-10-24 10:17:00,
2013-10-24 06:23:00,29.3,28.6,29.49,WSW,238,0.0,4.0,97,0.00,,,0.00,meteohub,2013-10-24 10:23:00,
2013-10-24 06:28:00,29.5,28.8,29.49,WSW,238,0.0,4.0,97,0.00,,,0.00,meteohub,2013-10-24 10:28:00,
2013-10-24 06:33:00,29.7,28.6,29.49,WSW,237,0.0,4.0,96,0.00,,,0.00,meteohub,2013-10-24 10:33:00,
2013-10-24 06:38:00,29.7,28.4,29.49,SW,217,0.0,2.0,95,0.00,,,0.00,meteohub,2013-10-24 10:38:00,
2013-10-24 06:43:00,29.8,28.0,29.49,SW,217,0.0,2.0,93,0.00,,,0.00,meteohub,2013-10-24 10:43:00,
2013-10-24 06:48:00,30.0,27.7,29.49,SW,223,1.0,2.0,91,0.00,,,0.00,meteohub,2013-10-24 10:48:00,
2013-10-24 06:53:00,30.6,27.5,29.49,SW,232,0.0,6.0,88,0.00,,,0.00,meteohub,2013-10-24 10:53:00,
2013-10-24 06:58:00,30.7,27.3,29.49,SW,223,0.0,6.0,87,0.00,,,0.00,meteohub,2013-10-24 10:58:00,
2013-10-24 07:03:00,30.7,27.3,29.49,SW,223,0.0,6.0,87,0.00,,,0.00,meteohub,2013-10-24 11:03:00,
2013-10-24 07:09:00,30.6,27.1,29.49,SW,223,0.0,4.0,87,0.00,,,0.00,meteohub,2013-10-24 11:09:00,
2013-10-24 07:14:00,30.2,26.8,29.49,SW,223,0.0,4.0,87,0.00,,,0.00,meteohub,2013-10-24 11:14:00,
2013-10-24 07:19:00,29.8,26.8,29.49,SW,225,1.0,2.0,88,0.00,,,0.00,meteohub,2013-10-24 11:19:00,
2013-10-24 07:24:00,29.7,26.8,29.49,West,269,1.0,2.0,89,0.00,,,0.00,meteohub,2013-10-24 11:24:00,
2013-10-24 07:29:00,29.7,26.8,29.49,West,270,1.0,2.0,89,0.00,,,0.00,meteohub,2013-10-24 11:29:00,
2013-10-24 07:34:00,29.5,27.0,29.49,West,270,0.0,2.0,90,0.00,,,0.00,meteohub,2013-10-24 11:34:00,
2013-10-24 07:39:00,29.7,27.1,29.49,West,270,0.0,2.0,90,0.00,,,0.00,meteohub,2013-10-24 11:39:00,
2013-10-24 07:45:00,29.8,27.0,29.49,West,267,1.0,2.0,89,0.00,,,0.00,meteohub,2013-10-24 11:45:00,
2013-10-24 07:50:00,30.9,27.0,29.49,WSW,250,2.0,2.0,85,0.00,,,0.00,meteohub,2013-10-24 11:50:00,
2013-10-24 07:55:00,31.6,26.8,29.49,West,277,0.0,6.0,82,0.00,,,0.00,meteohub,2013-10-24 11:55:00,
2013-10-24 08:00:00,32.2,27.0,29.50,West,263,2.0,6.0,81,0.00,,,0.00,meteohub,2013-10-24 12:00:00,
2013-10-24 08:05:00,32.4,26.6,29.50,SW,226,3.0,6.0,79,0.00,,,0.00,meteohub,2013-10-24 12:05:00,
2013-10-24 08:10:00,32.4,26.6,29.50,West,275,0.0,6.0,79,0.00,,,0.00,meteohub,2013-10-24 12:10:00,
2013-10-24 08:15:00,32.5,27.1,29.50,West,267,0.0,6.0,80,0.00,,,0.00,meteohub,2013-10-24 12:15:00,
2013-10-24 08:20:00,32.7,27.0,29.50,West,268,0.0,4.0,79,0.00,,,0.00,meteohub,2013-10-24 12:20:00,
2013-10-24 08:25:00,33.1,27.3,29.50,NW,316,0.0,4.0,79,0.00,,,0.00,meteohub,2013-10-24 12:25:00,
2013-10-24 08:31:00,33.1,27.3,29.50,NW,316,0.0,4.0,79,0.00,,,0.00,meteohub,2013-10-24 12:31:00,
2013-10-24 08:36:00,33.1,27.0,29.50,WNW,294,0.0,4.0,78,0.00,,,0.00,meteohub,2013-10-24 12:36:00,
2013-10-24 08:41:00,33.3,27.5,29.50,SW,225,0.0,1.0,79,0.00,,,0.00,meteohub,2013-10-24 12:41:00,
2013-10-24 08:46:00,33.3,27.1,29.49,SW,217,0.0,1.0,78,0.00,,,0.00,meteohub,2013-10-24 12:46:00,
2013-10-24 08:51:00,33.3,27.1,29.49,SW,217,0.0,1.0,78,0.00,,,0.00,meteohub,2013-10-24 12:51:00,
2013-10-24 08:56:00,33.4,27.3,29.50,WNW,302,3.0,0.0,78,0.00,,,0.00,meteohub,2013-10-24 12:56:00,
2013-10-24 09:01:00,33.6,27.1,29.49,West,277,0.0,3.0,77,0.00,,,0.00,meteohub,2013-10-24 13:01:00,
2013-10-24 09:06:00,34.0,27.1,29.49,West,271,0.0,4.0,76,0.00,,,0.00,meteohub,2013-10-24 13:06:00,
2013-10-24 09:12:00,34.2,27.7,29.49,West,271,0.0,5.0,77,0.00,,,0.00,meteohub,2013-10-24 13:12:00,
2013-10-24 09:17:00,34.5,28.8,29.49,West,270,0.0,5.0,79,0.00,,,0.00,meteohub,2013-10-24 13:17:00,
2013-10-24 09:22:00,35.1,27.7,29.49,SW,227,0.0,5.0,74,0.00,,,0.00,meteohub,2013-10-24 13:22:00,
2013-10-24 09:27:00,35.2,27.5,29.49,West,269,2.0,10.0,73,0.00,,,0.00,meteohub,2013-10-24 13:27:00,
2013-10-24 09:32:00,35.6,27.9,29.49,WNW,303,3.0,10.0,73,0.00,,,0.00,meteohub,2013-10-24 13:32:00,
2013-10-24 09:37:00,36.0,27.5,29.49,SW,233,8.0,10.0,71,0.00,,,0.00,meteohub,2013-10-24 13:37:00,
2013-10-24 09:42:00,36.1,27.7,29.49,West,279,0.0,9.0,71,0.00,,,0.00,meteohub,2013-10-24 13:42:00,
2013-10-24 09:47:00,36.1,27.7,29.49,SW,229,3.0,9.0,71,0.00,,,0.00,meteohub,2013-10-24 13:47:00,
2013-10-24 09:52:00,36.1,27.7,29.50,WNW,284,1.0,10.0,71,0.00,,,0.00,meteohub,2013-10-24 13:52:00,
2013-10-24 09:57:00,36.1,27.7,29.49,NW,306,0.0,10.0,71,0.00,,,0.00,meteohub,2013-10-24 13:57:00,
2013-10-24 10:02:00,36.1,27.3,29.49,SW,214,0.0,13.0,70,0.00,,,0.00,meteohub,2013-10-24 14:02:00,
2013-10-24 10:07:00,36.3,27.5,29.50,ESE,119,1.0,13.0,70,0.00,,,0.00,meteohub,2013-10-24 14:07:00,
2013-10-24 10:12:00,36.7,26.4,29.49,SW,223,7.0,12.0,66,0.00,,,0.00,meteohub,2013-10-24 14:12:00,
2013-10-24 10:17:00,36.9,26.6,29.49,SSW,211,0.0,13.0,66,0.00,,,0.00,meteohub,2013-10-24 14:17:00,
2013-10-24 10:22:00,37.0,25.7,29.49,SW,235,3.0,13.0,63,0.00,,,0.00,meteohub,2013-10-24 14:22:00,
2013-10-24 10:27:00,36.7,25.3,29.49,SW,234,7.0,13.0,63,0.00,,,0.00,meteohub,2013-10-24 14:27:00,
2013-10-24 10:32:00,36.5,25.2,29.49,WSW,255,1.0,17.0,63,0.00,,,0.00,meteohub,2013-10-24 14:32:00,
2013-10-24 10:37:00,36.5,25.2,29.50,WNW,282,3.0,17.0,63,0.00,,,0.00,meteohub,2013-10-24 14:37:00,
2013-10-24 10:42:00,36.3,25.3,29.49,WNW,290,4.0,17.0,64,0.00,,,0.00,meteohub,2013-10-24 14:42:00,
2013-10-24 10:47:00,36.0,25.0,29.50,West,276,3.0,13.0,64,0.00,,,0.00,meteohub,2013-10-24 14:47:00,
2013-10-24 10:52:00,36.0,25.3,29.50,SSW,209,3.0,16.0,65,0.00,,,0.00,meteohub,2013-10-24 14:52:00,
2013-10-24 10:57:00,36.0,25.3,29.49,West,261,2.0,16.0,65,0.00,,,0.00,meteohub,2013-10-24 14:57:00,
2013-10-24 11:02:00,35.8,25.2,29.50,SW,231,4.0,16.0,65,0.00,,,0.00,meteohub,2013-10-24 15:02:00,
2013-10-24 11:07:00,35.8,25.2,29.50,SW,225,2.0,15.0,65,0.00,,,0.00,meteohub,2013-10-24 15:07:00,
2013-10-24 11:13:00,36.0,25.3,29.50,West,275,1.0,15.0,65,0.00,,,0.00,meteohub,2013-10-24 15:13:00,
2013-10-24 11:18:00,35.8,24.8,29.50,South,180,2.0,15.0,64,0.00,,,0.00,meteohub,2013-10-24 15:18:00,
2013-10-24 11:23:00,35.8,24.8,29.50,West,273,4.0,15.0,64,0.00,,,0.00,meteohub,2013-10-24 15:23:00,
2013-10-24 11:28:00,36.0,25.3,29.50,South,181,0.0,15.0,65,0.00,,,0.00,meteohub,2013-10-24 15:28:00,
2013-10-24 11:33:00,36.0,25.0,29.49,SW,235,4.0,15.0,64,0.00,,,0.00,meteohub,2013-10-24 15:33:00,
2013-10-24 11:38:00,36.1,24.8,29.49,WNW,283,2.0,11.0,63,0.00,,,0.00,meteohub,2013-10-24 15:38:00,
2013-10-24 11:43:00,36.1,24.8,29.49,SSW,207,0.0,9.0,63,0.00,,,0.00,meteohub,2013-10-24 15:43:00,
2013-10-24 11:49:00,36.1,24.8,29.49,South,171,4.0,9.0,63,0.00,,,0.00,meteohub,2013-10-24 15:49:00,
2013-10-24 11:54:00,36.1,24.8,29.49,SSE,167,7.0,14.0,63,0.00,,,0.00,meteohub,2013-10-24 15:54:00,
2013-10-24 11:59:00,36.1,24.4,29.49,WSW,257,0.0,14.0,62,0.00,,,0.00,meteohub,2013-10-24 15:59:00,
2013-10-24 12:04:00,36.1,24.4,29.49,SW,230,5.0,16.0,62,0.00,,,0.00,meteohub,2013-10-24 16:04:00,
2013-10-24 12:09:00,36.3,24.6,29.48,SW,232,7.0,16.0,62,0.00,,,0.00,meteohub,2013-10-24 16:09:00,
2013-10-24 12:14:00,36.7,25.0,29.48,SW,217,2.0,16.0,62,0.00,,,0.00,meteohub,2013-10-24 16:14:00,
2013-10-24 12:19:00,37.2,25.0,29.47,South,180,6.0,11.0,61,0.00,,,0.00,meteohub,2013-10-24 16:19:00,
2013-10-24 12:24:00,37.2,24.6,29.48,WNW,294,1.0,12.0,60,0.00,,,0.00,meteohub,2013-10-24 16:24:00,
2013-10-24 12:30:00,37.4,24.8,29.48,SSW,206,6.0,12.0,60,0.00,,,0.00,meteohub,2013-10-24 16:30:00,
2013-10-24 12:35:00,37.4,24.8,29.48,South,178,4.0,12.0,60,0.00,,,0.00,meteohub,2013-10-24 16:35:00,
2013-10-24 12:40:00,37.6,25.0,29.48,WSW,254,6.0,12.0,60,0.00,,,0.00,meteohub,2013-10-24 16:40:00,
2013-10-24 12:45:00,37.8,25.2,29.48,WSW,247,6.0,16.0,60,0.00,,,0.00,meteohub,2013-10-24 16:45:00,
2013-10-24 12:50:00,37.9,25.0,29.47,SE,140,0.0,16.0,59,0.00,,,0.00,meteohub,2013-10-24 16:50:00,
2013-10-24 12:55:00,37.9,25.0,29.47,North,5,4.0,15.0,59,0.00,,,0.00,meteohub,2013-10-24 16:55:00,
2013-10-24 13:00:00,37.9,24.4,29.47,SW,224,6.0,15.0,58,0.00,,,0.00,meteohub,2013-10-24 17:00:00,
2013-10-24 13:05:00,38.1,24.6,29.47,WNW,300,5.0,15.0,58,0.00,,,0.00,meteohub,2013-10-24 17:05:00,
2013-10-24 13:11:00,38.1,24.3,29.47,WSW,258,5.0,15.0,57,0.00,,,0.00,meteohub,2013-10-24 17:11:00,
2013-10-24 13:16:00,38.5,25.0,29.47,WSW,239,3.0,15.0,58,0.00,,,0.00,meteohub,2013-10-24 17:16:00,
2013-10-24 13:21:00,38.7,24.8,29.46,WNW,291,5.0,17.0,57,0.00,,,0.00,meteohub,2013-10-24 17:21:00,
2013-10-24 13:26:00,38.8,25.0,29.46,NW,311,1.0,17.0,57,0.00,,,0.00,meteohub,2013-10-24 17:26:00,
2013-10-24 13:31:00,39.0,25.2,29.46,West,275,5.0,17.0,57,0.00,,,0.00,meteohub,2013-10-24 17:31:00,
2013-10-24 13:36:00,39.2,24.8,29.45,NW,311,4.0,16.0,56,0.00,,,0.00,meteohub,2013-10-24 17:36:00,
2013-10-24 13:41:00,39.4,25.3,29.46,NNE,22,0.0,13.0,57,0.00,,,0.00,meteohub,2013-10-24 17:41:00,
2013-10-24 13:46:00,39.6,25.2,29.45,SSE,154,0.0,12.0,56,0.00,,,0.00,meteohub,2013-10-24 17:46:00,
2013-10-24 13:52:00,39.9,25.9,29.45,WSW,243,2.0,9.0,57,0.00,,,0.00,meteohub,2013-10-24 17:52:00,
2013-10-24 13:57:00,39.9,25.0,29.45,WNW,292,6.0,8.0,55,0.00,,,0.00,meteohub,2013-10-24 17:57:00,
2013-10-24 14:02:00,39.9,25.9,29.45,West,269,7.0,13.0,57,0.00,,,0.00,meteohub,2013-10-24 18:02:00,
2013-10-24 14:07:00,39.7,25.7,29.45,WNW,302,2.0,13.0,57,0.00,,,0.00,meteohub,2013-10-24 18:07:00,
2013-10-24 14:12:00,39.9,25.5,29.45,SW,220,1.0,12.0,56,0.00,,,0.00,meteohub,2013-10-24 18:12:00,
2013-10-24 14:17:00,40.5,26.4,29.45,SW,229,2.0,11.0,57,0.00,,,0.00,meteohub,2013-10-24 18:17:00,
2013-10-24 14:22:00,40.6,25.7,29.45,SW,230,6.0,11.0,55,0.00,,,0.00,meteohub,2013-10-24 18:22:00,
2013-10-24 14:27:00,40.1,26.1,29.45,SW,227,3.0,17.0,57,0.00,,,0.00,meteohub,2013-10-24 18:27:00,
2013-10-24 14:32:00,39.9,25.9,29.45,WSW,251,9.0,17.0,57,0.00,,,0.00,meteohub,2013-10-24 18:32:00,
2013-10-24 14:37:00,39.9,25.5,29.45,WNW,300,5.0,17.0,56,0.00,,,0.00,meteohub,2013-10-24 18:37:00,
2013-10-24 14:42:00,39.9,25.5,29.46,North,350,2.0,14.0,56,0.00,,,0.00,meteohub,2013-10-24 18:42:00,
2013-10-24 14:47:00,39.9,25.5,29.46,SW,225,6.0,14.0,56,0.00,,,0.00,meteohub,2013-10-24 18:47:00,
2013-10-24 14:52:00,39.9,25.0,29.45,SSW,211,13.0,15.0,55,0.00,,,0.00,meteohub,2013-10-24 18:52:00,
2013-10-24 14:57:00,39.9,25.5,29.46,WSW,238,8.0,15.0,56,0.00,,,0.00,meteohub,2013-10-24 18:57:00,
2013-10-24 15:02:00,40.1,25.7,29.46,SW,223,4.0,15.0,56,0.00,,,0.00,meteohub,2013-10-24 19:02:00,
2013-10-24 15:07:00,40.3,25.9,29.46,WNW,298,15.0,15.0,56,0.00,,,0.00,meteohub,2013-10-24 19:07:00,
2013-10-24 15:12:00,39.9,25.9,29.46,West,280,14.0,15.0,57,0.00,,,0.00,meteohub,2013-10-24 19:12:00,
2013-10-24 15:17:00,39.7,25.7,29.46,WNW,289,2.0,18.0,57,0.00,,,0.00,meteohub,2013-10-24 19:17:00,
2013-10-24 15:22:00,39.6,26.1,29.46,WNW,288,8.0,18.0,58,0.00,,,0.00,meteohub,2013-10-24 19:22:00,
2013-10-24 15:27:00,39.6,26.1,29.46,South,180,2.0,16.0,58,0.00,,,0.00,meteohub,2013-10-24 19:27:00,
2013-10-24 15:32:00,39.7,26.2,29.46,SW,234,3.0,20.0,58,0.00,,,0.00,meteohub,2013-10-24 19:32:00,
2013-10-24 15:37:00,39.7,26.2,29.46,West,265,6.0,20.0,58,0.00,,,0.00,meteohub,2013-10-24 19:37:00,
2013-10-24 15:42:00,39.9,26.8,29.47,ESE,116,0.0,20.0,59,0.00,,,0.00,meteohub,2013-10-24 19:42:00,
2013-10-24 15:48:00,39.9,27.1,29.47,West,274,8.0,10.0,60,0.00,,,0.00,meteohub,2013-10-24 19:48:00,
2013-10-24 15:53:00,39.7,27.0,29.47,WNW,302,6.0,14.0,60,0.00,,,0.00,meteohub,2013-10-24 19:53:00,
2013-10-24 15:58:00,39.6,27.1,29.47,North,0,8.0,14.0,61,0.00,,,0.00,meteohub,2013-10-24 19:58:00,
2013-10-24 16:03:00,39.2,27.0,29.47,West,279,4.0,14.0,61,0.00,,,0.00,meteohub,2013-10-24 20:03:00,
2013-10-24 16:08:00,39.0,27.5,29.48,NNW,333,4.0,16.0,63,0.00,,,0.00,meteohub,2013-10-24 20:08:00,
2013-10-24 16:13:00,38.8,27.7,29.47,NW,315,0.0,16.0,64,0.00,,,0.00,meteohub,2013-10-24 20:13:00,
2013-10-24 16:18:00,38.8,27.7,29.48,SW,229,0.0,16.0,64,0.00,,,0.00,meteohub,2013-10-24 20:18:00,
2013-10-24 16:23:00,38.8,28.0,29.47,NNE,24,3.0,15.0,65,0.00,,,0.00,meteohub,2013-10-24 20:23:00,
2013-10-24 16:29:00,38.7,27.9,29.48,NW,319,5.0,14.0,65,0.00,,,0.00,meteohub,2013-10-24 20:29:00,
2013-10-24 16:34:00,38.5,28.0,29.47,WSW,246,6.0,18.0,66,0.00,,,0.00,meteohub,2013-10-24 20:34:00,
2013-10-24 16:39:00,38.1,28.6,29.48,SW,226,4.0,18.0,68,0.00,,,0.00,meteohub,2013-10-24 20:39:00,
2013-10-24 16:44:00,37.9,29.1,29.48,SW,221,3.0,18.0,70,0.00,,,0.00,meteohub,2013-10-24 20:44:00,
2013-10-24 16:49:00,37.9,29.3,29.48,WSW,250,0.0,18.0,71,0.00,,,0.00,meteohub,2013-10-24 20:49:00,
2013-10-24 16:54:00,37.8,29.5,29.48,West,266,0.0,18.0,72,0.00,,,0.00,meteohub,2013-10-24 20:54:00,
2013-10-24 16:59:00,37.8,29.8,29.48,South,171,2.0,15.0,73,0.00,,,0.00,meteohub,2013-10-24 20:59:00,
2013-10-24 17:04:00,37.6,30.0,29.49,NW,325,1.0,8.0,74,0.00,,,0.00,meteohub,2013-10-24 21:04:00,
2013-10-24 17:10:00,37.2,30.4,29.49,SE,126,0.0,8.0,76,0.00,,,0.00,meteohub,2013-10-24 21:10:00,
2013-10-24 17:15:00,37.0,30.6,29.49,WSW,255,1.0,8.0,77,0.00,,,0.00,meteohub,2013-10-24 21:15:00,
2013-10-24 17:20:00,36.9,30.4,29.49,SE,136,0.0,8.0,77,0.00,,,0.00,meteohub,2013-10-24 21:20:00,
2013-10-24 17:25:00,36.9,30.9,29.49,SSE,150,1.0,7.0,79,0.00,,,0.00,meteohub,2013-10-24 21:25:00,
2013-10-24 17:30:00,36.7,30.7,29.49,West,270,7.0,7.0,79,0.00,,,0.00,meteohub,2013-10-24 21:30:00,
2013-10-24 17:35:00,36.5,30.9,29.49,WNW,301,0.0,12.0,80,0.00,,,0.00,meteohub,2013-10-24 21:35:00,
2013-10-24 17:40:00,36.5,31.3,29.50,West,267,4.0,12.0,81,0.00,,,0.00,meteohub,2013-10-24 21:40:00,
2013-10-24 17:45:00,36.3,31.1,29.49,WSW,252,7.0,12.0,81,0.00,,,0.00,meteohub,2013-10-24 21:45:00,
2013-10-24 17:51:00,36.3,31.1,29.50,SSE,165,0.0,12.0,81,0.00,,,0.00,meteohub,2013-10-24 21:51:00,
2013-10-24 17:56:00,36.3,31.1,29.50,West,263,6.0,12.0,81,0.00,,,0.00,meteohub,2013-10-24 21:56:00,
2013-10-24 18:01:00,36.5,31.3,29.50,SW,227,0.0,12.0,81,0.00,,,0.00,meteohub,2013-10-24 22:01:00,
2013-10-24 18:06:00,36.5,31.3,29.50,West,277,2.0,12.0,81,0.00,,,0.00,meteohub,2013-10-24 22:06:00,
2013-10-24 18:11:00,36.7,31.1,29.50,SSW,209,1.0,12.0,80,0.00,,,0.00,meteohub,2013-10-24 22:11:00,
2013-10-24 18:16:00,36.7,31.1,29.50,WNW,298,2.0,10.0,80,0.00,,,0.00,meteohub,2013-10-24 22:16:00,
2013-10-24 18:21:00,36.7,31.1,29.50,SW,234,1.0,10.0,80,0.00,,,0.00,meteohub,2013-10-24 22:21:00,
2013-10-24 18:26:00,36.7,31.1,29.50,SW,217,4.0,9.0,80,0.00,,,0.00,meteohub,2013-10-24 22:26:00,
2013-10-24 18:32:00,36.7,31.5,29.50,West,261,1.0,9.0,81,0.00,,,0.00,meteohub,2013-10-24 22:32:00,
2013-10-24 18:37:00,36.9,31.3,29.50,SW,218,2.0,11.0,80,0.00,,,0.00,meteohub,2013-10-24 22:37:00,
2013-10-24 18:42:00,36.9,31.3,29.50,SW,227,6.0,13.0,80,0.00,,,0.00,meteohub,2013-10-24 22:42:00,
2013-10-24 18:47:00,36.9,30.9,29.50,SW,221,4.0,15.0,79,0.00,,,0.00,meteohub,2013-10-24 22:47:00,
2013-10-24 18:52:00,37.0,31.1,29.50,WSW,254,5.0,15.0,79,0.00,,,0.00,meteohub,2013-10-24 22:52:00,
2013-10-24 18:57:00,37.0,31.1,29.51,WNW,297,1.0,15.0,79,0.00,,,0.00,meteohub,2013-10-24 22:57:00,
2013-10-24 19:02:00,37.0,31.1,29.51,SW,227,1.0,13.0,79,0.00,,,0.00,meteohub,2013-10-24 23:02:00,
2013-10-24 19:07:00,37.0,31.1,29.50,West,273,5.0,12.0,79,0.00,,,0.00,meteohub,2013-10-24 23:07:00,
2013-10-24 19:12:00,37.0,31.1,29.50,West,267,0.0,12.0,79,0.00,,,0.00,meteohub,2013-10-24 23:12:00,
2013-10-24 19:17:00,36.9,30.9,29.50,SSW,211,4.0,13.0,79,0.00,,,0.00,meteohub,2013-10-24 23:17:00,
2013-10-24 19:22:00,36.9,31.3,29.51,SSE,159,1.0,13.0,80,0.00,,,0.00,meteohub,2013-10-24 23:22:00,
2013-10-24 19:27:00,36.9,31.3,29.50,SW,217,3.0,11.0,80,0.00,,,0.00,meteohub,2013-10-24 23:27:00,
2013-10-24 19:32:00,36.9,31.3,29.50,West,264,0.0,13.0,80,0.00,,,0.00,meteohub,2013-10-24 23:32:00,
2013-10-24 19:37:00,36.9,31.3,29.51,SW,217,2.0,13.0,80,0.00,,,0.00,meteohub,2013-10-24 23:37:00,
2013-10-24 19:42:00,36.9,31.3,29.51,NW,307,6.0,11.0,80,0.00,,,0.00,meteohub,2013-10-24 23:42:00,
2013-10-24 19:47:00,36.9,31.3,29.51,WNW,300,2.0,12.0,80,0.00,,,0.00,meteohub,2013-10-24 23:47:00,
2013-10-24 19:52:00,36.9,31.3,29.51,NW,323,8.0,14.0,80,0.00,,,0.00,meteohub,2013-10-24 23:52:00,
2013-10-24 19:57:00,36.9,31.3,29.51,WNW,285,6.0,14.0,80,0.00,,,0.00,meteohub,2013-10-24 23:57:00,
2013-10-24 20:02:00,36.9,31.6,29.51,SW,236,6.0,12.0,81,0.00,,,0.00,meteohub,2013-10-25 00:02:00,
2013-10-24 20:07:00,36.9,31.6,29.51,North,9,1.0,12.0,81,0.00,,,0.00,meteohub,2013-10-25 00:07:00,
2013-10-24 20:12:00,36.7,31.5,29.51,West,261,0.0,12.0,81,0.00,,,0.00,meteohub,2013-10-25 00:12:00,
2013-10-24 20:17:00,36.7,31.5,29.51,WNW,284,7.0,12.0,81,0.00,,,0.00,meteohub,2013-10-25 00:17:00,
2013-10-24 20:22:00,36.7,31.5,29.51,North,355,4.0,12.0,81,0.00,,,0.00,meteohub,2013-10-25 00:22:00,
2013-10-24 20:27:00,36.7,31.5,29.51,South,189,0.0,12.0,81,0.00,,,0.00,meteohub,2013-10-25 00:27:00,
2013-10-24 20:32:00,36.5,31.5,29.51,WNW,286,11.0,11.0,82,0.00,,,0.00,meteohub,2013-10-25 00:32:00,
2013-10-24 20:37:00,36.3,31.3,29.51,SSW,205,7.0,11.0,82,0.00,,,0.00,meteohub,2013-10-25 00:37:00,
2013-10-24 20:42:00,36.5,31.5,29.52,NNE,32,3.0,11.0,82,0.00,,,0.00,meteohub,2013-10-25 00:42:00,
2013-10-24 20:47:00,36.5,31.5,29.52,WSW,251,4.0,13.0,82,0.00,,,0.00,meteohub,2013-10-25 00:47:00,
2013-10-24 20:52:00,36.7,31.6,29.52,WNW,289,1.0,13.0,82,0.00,,,0.00,meteohub,2013-10-25 00:52:00,
2013-10-24 20:57:00,36.5,31.5,29.52,North,355,4.0,10.0,82,0.00,,,0.00,meteohub,2013-10-25 00:57:00,
2013-10-24 21:02:00,36.7,31.6,29.52,WNW,296,6.0,10.0,82,0.00,,,0.00,meteohub,2013-10-25 01:02:00,
2013-10-24 21:07:00,36.7,31.6,29.52,West,276,2.0,10.0,82,0.00,,,0.00,meteohub,2013-10-25 01:07:00,
2013-10-24 21:12:00,36.7,31.6,29.52,WSW,258,0.0,10.0,82,0.00,,,0.00,meteohub,2013-10-25 01:12:00,
2013-10-24 21:18:00,36.7,32.0,29.53,NW,315,0.0,14.0,83,0.00,,,0.00,meteohub,2013-10-25 01:18:00,
2013-10-24 21:23:00,36.7,32.0,29.52,NW,309,4.0,14.0,83,0.00,,,0.00,meteohub,2013-10-25 01:23:00,
2013-10-24 21:28:00,36.9,32.2,29.53,WSW,252,6.0,10.0,83,0.00,,,0.00,meteohub,2013-10-25 01:28:00,
2013-10-24 21:33:00,36.9,32.2,29.53,WNW,288,2.0,11.0,83,0.00,,,0.00,meteohub,2013-10-25 01:33:00,
2013-10-24 21:38:00,36.9,31.8,29.53,NW,307,3.0,11.0,82,0.00,,,0.00,meteohub,2013-10-25 01:38:00,
2013-10-24 21:43:00,36.9,32.2,29.53,WNW,287,7.0,11.0,83,0.00,,,0.00,meteohub,2013-10-25 01:43:00,
2013-10-24 21:48:00,37.0,32.0,29.53,NNW,329,4.0,10.0,82,0.00,,,0.00,meteohub,2013-10-25 01:48:00,
2013-10-24 21:53:00,37.0,32.0,29.53,SW,222,1.0,13.0,82,0.00,,,0.00,meteohub,2013-10-25 01:53:00,
2013-10-24 21:59:00,37.0,32.4,29.53,WSW,253,0.0,13.0,83,0.00,,,0.00,meteohub,2013-10-25 01:59:00,
2013-10-24 22:04:00,37.2,32.2,29.54,WSW,250,3.0,13.0,82,0.00,,,0.00,meteohub,2013-10-25 02:04:00,
2013-10-24 22:09:00,37.2,32.5,29.54,WSW,258,2.0,10.0,83,0.00,,,0.00,meteohub,2013-10-25 02:09:00,
2013-10-24 22:14:00,37.2,32.2,29.54,WSW,238,5.0,9.0,82,0.00,,,0.00,meteohub,2013-10-25 02:14:00,
2013-10-24 22:19:00,37.2,32.2,29.54,WSW,243,2.0,10.0,82,0.00,,,0.00,meteohub,2013-10-25 02:19:00,
2013-10-24 22:24:00,37.2,32.2,29.54,SW,220,2.0,11.0,82,0.00,,,0.00,meteohub,2013-10-25 02:24:00,
2013-10-24 22:29:00,37.2,32.2,29.53,SSW,208,4.0,16.0,82,0.00,,,0.00,meteohub,2013-10-25 02:29:00,
2013-10-24 22:34:00,37.4,32.4,29.54,ESE,114,0.0,16.0,82,0.00,,,0.00,meteohub,2013-10-25 02:34:00,
2013-10-24 22:40:00,37.4,32.4,29.54,West,269,3.0,16.0,82,0.00,,,0.00,meteohub,2013-10-25 02:40:00,
2013-10-24 22:45:00,37.6,32.5,29.54,SW,227,3.0,16.0,82,0.00,,,0.00,meteohub,2013-10-25 02:45:00,
2013-10-24 22:50:00,37.6,32.5,29.54,West,273,1.0,10.0,82,0.00,,,0.00,meteohub,2013-10-25 02:50:00,
2013-10-24 22:55:00,37.6,32.5,29.54,WSW,246,4.0,13.0,82,0.00,,,0.00,meteohub,2013-10-25 02:55:00,
2013-10-24 23:00:00,37.6,32.5,29.54,South,178,2.0,13.0,82,0.00,,,0.00,meteohub,2013-10-25 03:00:00,
2013-10-24 23:05:00,37.6,32.5,29.54,WSW,257,0.0,13.0,82,0.00,,,0.00,meteohub,2013-10-25 03:05:00,
2013-10-24 23:10:00,37.8,32.7,29.55,WSW,242,0.0,12.0,82,0.00,,,0.00,meteohub,2013-10-25 03:10:00,
2013-10-24 23:15:00,37.8,32.7,29.55,WSW,238,4.0,12.0,82,0.00,,,0.00,meteohub,2013-10-25 03:15:00,
2013-10-24 23:21:00,37.8,32.7,29.55,West,262,4.0,12.0,82,0.00,,,0.00,meteohub,2013-10-25 03:21:00,
2013-10-24 23:26:00,37.8,32.7,29.55,West,268,3.0,10.0,82,0.00,,,0.00,meteohub,2013-10-25 03:26:00,
2013-10-24 23:31:00,37.8,32.5,29.55,SW,222,1.0,10.0,81,0.00,,,0.00,meteohub,2013-10-25 03:31:00,
2013-10-24 23:36:00,37.8,32.7,29.55,SW,225,6.0,10.0,82,0.00,,,0.00,meteohub,2013-10-25 03:36:00,
2013-10-24 23:41:00,37.9,32.7,29.55,West,267,2.0,10.0,81,0.00,,,0.00,meteohub,2013-10-25 03:41:00,
2013-10-24 23:46:00,37.9,32.9,29.56,WSW,244,0.0,8.0,82,0.00,,,0.00,meteohub,2013-10-25 03:46:00,
2013-10-24 23:51:00,37.9,32.7,29.56,SSW,206,5.0,7.0,81,0.00,,,0.00,meteohub,2013-10-25 03:51:00,
2013-10-24 23:56:00,37.9,32.7,29.56,WNW,302,4.0,8.0,81,0.00,,,0.00,meteohub,2013-10-25 03:56:00,